SCP
0 0 0 0 0 0 0 0 0 0 0 0 0 0 0 -0 0 -0 -0 0 0 0 0 0 0 0 0 0 0 0 0 0 0 0 0 0 0 0
0 0 0 0 0 0 0 0 0 0 0 0 0 0 0 0 0 0 0 0 0 0 0 -0 0 0 0 0 0 0 0 0 0 0 0 0 0 0
0 0 0 0 0 0 0 0 0 0 0 0 0 0 0 0 0 0 0 0 0 0 0 0 0 0 0 -0 -0 0 0 0 0 0 0 0 0 0
0 0 0 0 0 0 0 0 0 0 0 0 0 0 0 0 0 0 -0 -0 -0 -0 -0 0 0 0 0 0 0 0 0 0 0 0 0 0 0 0
0 0 0 0 0 0 0 0 0 0 0 0 0 0 0 0 0 -0 -0 -0 -0 -0 -0 -0 -0 -0 -0 -0 0 0 0 0 0 0 0 0 0 0
0 0 0 0 0 0 0 0 0 0 0 0 0 0 -0 -0 -0 -0 -0 -0 -0 -0 -0 -0 -0 -0 -0 -0 -0 -0 -0 0 0 0 0 0 0 0
0 0 0 0 0 0 0 0 0 0 0 0 0 -0 -0 -0 -0 -0 -0 -0 -0 -0 0 -0 0 0 0 -0 -0 -0 -0 -0 -0 0 0 0 0 0
0 0 0 0 0 0 0 0 0 0 0 0 0 0 -0 -0 -0 -0 -0 -0 -0 -0 0 0 0 0 0 0 -0 -0 -0 -0 -0 0 0 0 0 0
0 0 0 0 0 0 0 0 0 0 0 0 0 0 0 0 0 0 0 0 0 0 0 0 0 0 0 0 0 -0 -0 -0 0 0 0 0 0 0
0 0 0 0 0 0 0 0 0 0 0 0 0 0 0 0 0 0 0 0 0 0 0 0 0 0 0 0 0 -0 -0 -0 -0 -0 0 0 0 0
0 0 0 0 0 0 0 0 0 0 0 0 0 0 0 0 0 0 0 0 0 0 0 0 0 0 0 0 0 0 0 0 0 0 0 0 0 0
0 0 0 0 0 0 0 0 0 0 0 0 0 0 0 0 0 0 0 0 0 0 0 0 0 0 0 0 0 0 0 0 0 0 0 0 0 0
0 0 0 0 0 0 0 0 0 0 0 0 0 0 0 0 0 0 0 0 0 0 0 0 0 0 0 0 0 0 0 0 0 0 0 0 0 0
0 0 0 0 0 0 0 0 0 0 0 0 0 0 0 0 0 0 0 0 0 0 0 0 0 0 0 0 0 0 0 0 0 0 0 0 0 0
0 0 0 0 0 0 0 0 0 0 0 0 0 0 0 0 0 0 0 0 0 0 0 0 0 0 0 0 0 0 0 0 0 0 0 0 0 0
0 0 0 0 0 0 0 0 0 0 0 0 0 0 0 0 0 0 0 0 0 0 0 0 0 0 0 0 0 0 0 0 0 0 0 0 0 0
0 0 0 0 0 0 0 0 0 0 0 0 0 0 0 0 0 0 0 0 0 0 0 0 0 0 0 0 0 0 0 0 0 0 0 0 0 0
0 0 0 0 0 0 0 0 0 0 0 0 0 0 0 0 0 0 0 0 0 0 0 0 0 0 0 0 0 0 0 0 0 0 0 0 0 0
0 0 0 0 0 0 0 0 0 0 0 0 0 0 0 0 0 0 0 0 0 0 0 0 0 0 0 0 0 0 0 0 0 0 0 0 0 0
0 0 0 0 0 0 0 0 0 0 0 0 0 0 0 0 0 0 0 0 0 0 0 0 0 0 0 0 0 0 0 0 0 0 0 0 0 0
0 0 0 0 0 0 0 0 0 0 0 0 0 0 0 0 0 0 0 0 0 0 0 0 0 0 0 0 0 0 0 0 0 0 0 0 0 -0
0 0 0 0 0 0 0 0 0 0 0 0 0 0 0 0 0 0 0 0 0 0 0 0 0 0 0 0 0 0 0 0 0 0 0 0 -0 -0
0 0 0 0 0 0 0 0 0 0 0 0 0 0 0 0 0 0 0 0 0 0 0 0 0 0 0 0 0 0 0 0 0 0 0 0 -0 -0
Wind_Speed_500mb
62 54 47 42 40 39 37 35 31 23 23 19 19 30 37 41 46 53 59 61 64 65 63 64 66 68 70 71 71 69 68 66 65 61 62 63 63 62
69 63 55 49 45 42 41 38 35 32 27 26 28 33 36 38 45 52 56 59 61 66 68 67 67 68 70 71 74 76 73 72 73 72 72 72 70 66
77 72 61 54 49 45 45 43 40 38 36 35 36 33 34 42 50 56 59 59 61 63 64 65 66 70 73 76 76 74 76 79 77 79 77 75 73 71
84 78 70 63 55 50 47 47 44 42 40 38 39 39 41 45 49 58 65 70 71 71 67 66 67 67 70 72 75 75 75 77 78 76 78 76 76 75
89 84 76 69 60 54 52 49 46 44 42 38 41 41 47 52 57 61 67 72 78 81 78 71 79 81 83 76 78 81 79 75 75 77 77 76 76 72
95 90 81 71 63 58 56 51 46 41 43 41 40 42 49 51 60 69 77 77 81 82 74 80 92 97 98 90 93 89 88 88 79 71 76 78 76 75
102 95 87 75 69 63 60 53 47 44 42 40 37 41 47 55 63 69 75 80 82 75 79 96 98 103 101 99 99 94 91 86 74 74 75 75 77 79
108 102 91 83 77 70 64 57 51 46 42 40 39 42 47 51 56 62 67 76 83 77 96 103 99 106 102 97 95 97 92 80 79 80 82 85 86 87
110 104 96 89 81 72 65 59 53 46 47 45 40 39 44 44 51 57 62 68 75 80 89 109 101 105 100 105 105 105 102 96 90 87 85 88 91 94
108 105 100 92 86 76 65 60 54 48 43 38 40 35 37 37 43 48 57 70 76 74 75 103 94 103 108 113 110 104 104 97 80 81 85 87 92 93
111 107 98 93 80 74 69 61 55 49 41 38 39 33 29 31 35 44 50 64 81 81 74 69 95 113 117 112 99 109 110 75 80 88 81 82 91 99
109 107 101 90 81 78 72 64 59 48 42 39 34 27 27 31 32 38 47 57 65 77 41 68 93 95 85 98 101 117 104 106 88 86 87 85 96 93
114 104 94 88 83 79 72 66 55 46 42 39 31 27 29 33 35 38 42 50 58 65 72 64 89 89 82 105 119 119 109 102 94 89 89 87 85 85
106 100 93 89 84 79 71 62 54 51 43 34 29 28 32 34 36 40 44 48 54 61 64 61 78 80 88 100 113 126 108 106 98 98 94 89 82 81
99 94 84 85 81 68 58 49 51 45 35 33 32 30 34 37 38 42 47 50 57 57 59 61 67 76 77 96 108 120 111 122 103 81 78 88 86 96
89 84 78 75 66 67 63 61 47 42 39 37 33 31 34 35 38 41 50 55 67 67 63 66 68 71 84 88 99 124 114 105 115 102 101 104 102 100
77 72 70 73 73 72 67 53 47 44 38 35 31 31 32 36 38 39 47 58 67 76 80 75 75 78 83 90 103 108 120 125 110 105 96 107 108 104
79 85 91 90 84 74 66 58 52 42 36 32 29 32 34 36 39 42 49 58 68 74 81 81 82 91 94 95 69 94 102 108 113 104 96 103 120 97
82 91 98 92 77 67 59 59 48 41 36 33 31 30 35 35 40 45 51 59 69 75 80 79 85 74 81 95 107 64 93 109 118 117 103 103 119 116
89 93 87 79 74 63 64 57 52 45 38 35 31 31 32 38 41 46 53 62 69 77 86 85 82 78 72 98 119 131 83 100 105 114 109 108 113 114
100 81 76 75 65 64 61 56 48 42 36 33 29 29 30 37 40 47 57 60 66 73 88 94 91 90 93 94 102 117 116 93 93 104 112 109 110 109
90 79 82 70 67 64 60 52 45 38 33 30 29 28 30 33 39 50 58 63 66 75 91 98 99 97 92 85 103 117 131 123 110 98 91 98 111 114
79 71 73 72 67 62 53 44 37 32 29 27 26 27 28 31 37 50 59 63 69 83 91 104 105 99 92 90 96 113 120 124 119 116 108 88 88 99
Wind_Direction_500mb
236 240 248 257 265 266 265 265 264 265 282 289 304 321 328 330 332 333 333 333 332 330 327 325 323 322 320 318 316 312 308 302 298 297 294 293 292 291
235 240 246 254 259 263 264 263 264 258 254 268 284 303 309 317 322 324 324 325 324 323 324 324 322 318 315 316 317 315 310 303 296 293 291 290 288 288
234 238 242 248 255 260 263 266 265 262 264 272 284 297 308 317 321 321 321 321 320 320 320 320 320 319 320 321 320 319 313 307 301 294 290 286 285 283
233 236 240 245 248 252 257 261 261 262 270 280 289 300 310 316 321 323 325 328 330 330 330 328 323 318 318 325 323 319 316 313 306 299 293 288 284 282
232 234 238 241 246 250 252 254 255 259 268 278 289 302 314 321 322 327 329 329 330 332 335 332 330 330 330 332 324 321 318 313 306 296 289 287 282 280
232 231 233 239 244 248 251 251 248 257 269 279 290 304 314 321 328 328 326 328 328 329 333 329 331 330 331 332 328 325 321 316 309 294 286 280 276 273
230 230 231 233 239 243 245 245 245 253 262 273 288 302 311 322 326 328 325 325 324 332 329 327 328 326 329 328 324 325 323 315 299 293 287 282 277 275
229 227 228 231 235 238 241 241 244 252 260 267 280 300 312 318 321 322 323 323 329 333 326 321 324 322 326 324 322 322 317 301 294 290 286 280 275 272
227 227 227 229 231 233 236 238 242 250 255 271 288 298 303 312 313 314 322 320 318 323 322 315 322 322 324 318 319 319 317 312 306 297 287 280 276 274
228 229 229 230 230 231 232 233 237 242 257 269 281 285 291 299 313 316 315 311 310 314 320 312 324 321 319 317 317 316 316 312 299 291 288 283 278 275
224 226 228 228 227 227 227 227 233 239 248 261 268 280 297 300 303 307 312 311 312 317 324 314 323 320 317 317 318 320 314 305 295 292 286 280 279 278
222 224 225 225 225 227 227 228 231 235 239 248 257 271 286 293 299 304 307 307 305 312 312 314 317 322 317 310 310 317 312 310 302 297 293 287 276 268
222 220 220 222 223 226 227 227 230 229 235 245 253 269 281 290 299 299 301 301 302 303 319 316 312 315 303 303 315 319 308 304 300 296 292 289 281 268
225 222 221 221 221 222 226 224 224 230 234 239 246 260 276 287 293 296 298 299 301 306 315 313 306 310 308 301 299 318 304 299 296 293 290 288 281 273
225 225 220 219 220 214 209 206 210 225 231 237 248 262 277 286 294 299 301 305 306 312 318 319 314 315 304 291 290 297 301 303 295 293 293 285 283 268
219 217 213 211 205 210 199 211 218 222 228 236 248 264 276 285 293 301 309 315 313 317 320 322 325 321 303 287 290 296 297 289 297 291 287 284 279 272
213 206 201 198 204 207 211 217 218 218 223 238 254 267 277 288 299 310 315 315 316 318 320 324 327 323 305 294 292 292 299 297 294 292 290 286 280 274
213 208 205 209 208 206 211 213 215 218 229 243 256 269 279 291 304 313 316 316 317 320 320 325 328 323 319 308 288 296 294 292 295 293 289 284 282 278
213 209 209 204 206 211 208 211 213 221 232 243 255 268 280 294 305 315 320 321 320 321 322 325 324 316 305 299 313 300 296 295 294 292 287 281 279 280
213 213 210 211 212 205 205 209 213 218 227 239 250 264 281 294 306 318 323 324 324 323 325 323 323 318 300 297 301 308 300 296 294 291 290 286 281 282
201 211 215 215 208 202 206 207 213 220 225 235 247 261 275 292 305 320 325 326 325 328 321 321 323 327 318 309 300 300 305 301 295 293 292 287 283 281
205 205 210 209 200 203 205 208 213 217 227 236 247 266 277 292 313 324 328 327 328 329 324 324 328 327 321 309 301 303 306 308 304 301 290 281 277 272
206 209 201 199 198 201 203 207 212 219 228 240 256 268 281 303 319 326 328 328 333 330 329 327 329 328 318 310 305 305 307 308 310 310 303 299 287 274
Wind_Speed_850mb
62 54 47 42 40 39 37 35 31 23 23 19 19 30 37 41 46 53 59 61 64 65 63 64 66 68 70 71 71 69 68 66 65 61 62 63 63 62
69 63 55 49 45 42 41 38 35 32 27 26 28 33 36 38 45 52 56 59 61 66 68 67 67 68 70 71 74 76 73 72 73 72 72 72 70 66
77 72 61 54 49 45 45 43 40 38 36 35 36 33 34 42 50 56 59 59 61 63 64 65 66 70 73 76 76 74 76 79 77 79 77 75 73 71
84 78 70 63 55 50 47 47 44 42 40 38 39 39 41 45 49 58 65 70 71 71 67 66 67 67 70 72 75 75 75 77 78 76 78 76 76 75
89 84 76 69 60 54 52 49 46 44 42 38 41 41 47 52 57 61 67 72 78 81 78 71 79 81 83 76 78 81 79 75 75 77 77 76 76 72
95 90 81 71 63 58 56 51 46 41 43 41 40 42 49 51 60 69 77 77 81 82 74 80 92 97 98 90 93 89 88 88 79 71 76 78 76 75
102 95 87 75 69 63 60 53 47 44 42 40 37 41 47 55 63 69 75 80 82 75 79 96 98 103 101 99 99 94 91 86 74 74 75 75 77 79
108 102 91 83 77 70 64 57 51 46 42 40 39 42 47 51 56 62 67 76 83 77 96 103 99 106 102 97 95 97 92 80 79 80 82 85 86 87
110 104 96 89 81 72 65 59 53 46 47 45 40 39 44 44 51 57 62 68 75 80 89 109 101 105 100 105 105 105 102 96 90 87 85 88 91 94
108 105 100 92 86 76 65 60 54 48 43 38 40 35 37 37 43 48 57 70 76 74 75 103 94 103 108 113 110 104 104 97 80 81 85 87 92 93
111 107 98 93 80 74 69 61 55 49 41 38 39 33 29 31 35 44 50 64 81 81 74 69 95 113 117 112 99 109 110 75 80 88 81 82 91 99
109 107 101 90 81 78 72 64 59 48 42 39 34 27 27 31 32 38 47 57 65 77 41 68 93 95 85 98 101 117 104 106 88 86 87 85 96 93
114 104 94 88 83 79 72 66 55 46 42 39 31 27 29 33 35 38 42 50 58 65 72 64 89 89 82 105 119 119 109 102 94 89 89 87 85 85
106 100 93 89 84 79 71 62 54 51 43 34 29 28 32 34 36 40 44 48 54 61 64 61 78 80 88 100 113 126 108 106 98 98 94 89 82 81
99 94 84 85 81 68 58 49 51 45 35 33 32 30 34 37 38 42 47 50 57 57 59 61 67 76 77 96 108 120 111 122 103 81 78 88 86 96
89 84 78 75 66 67 63 61 47 42 39 37 33 31 34 35 38 41 50 55 67 67 63 66 68 71 84 88 99 124 114 105 115 102 101 104 102 100
77 72 70 73 73 72 67 53 47 44 38 35 31 31 32 36 38 39 47 58 67 76 80 75 75 78 83 90 103 108 120 125 110 105 96 107 108 104
79 85 91 90 84 74 66 58 52 42 36 32 29 32 34 36 39 42 49 58 68 74 81 81 82 91 94 95 69 94 102 108 113 104 96 103 120 97
82 91 98 92 77 67 59 59 48 41 36 33 31 30 35 35 40 45 51 59 69 75 80 79 85 74 81 95 107 64 93 109 118 117 103 103 119 116
89 93 87 79 74 63 64 57 52 45 38 35 31 31 32 38 41 46 53 62 69 77 86 85 82 78 72 98 119 131 83 100 105 114 109 108 113 114
100 81 76 75 65 64 61 56 48 42 36 33 29 29 30 37 40 47 57 60 66 73 88 94 91 90 93 94 102 117 116 93 93 104 112 109 110 109
90 79 82 70 67 64 60 52 45 38 33 30 29 28 30 33 39 50 58 63 66 75 91 98 99 97 92 85 103 117 131 123 110 98 91 98 111 114
79 71 73 72 67 62 53 44 37 32 29 27 26 27 28 31 37 50 59 63 69 83 91 104 105 99 92 90 96 113 120 124 119 116 108 88 88 99
Wind_Direction_850mb
236 240 248 257 265 266 265 265 264 265 282 289 304 321 328 330 332 333 333 333 332 330 327 325 323 322 320 318 316 312 308 302 298 297 294 293 292 291
235 240 246 254 259 263 264 263 264 258 254 268 284 303 309 317 322 324 324 325 324 323 324 324 322 318 315 316 317 315 310 303 296 293 291 290 288 288
234 238 242 248 255 260 263 266 265 262 264 272 284 297 308 317 321 321 321 321 320 320 320 320 320 319 320 321 320 319 313 307 301 294 290 286 285 283
233 236 240 245 248 252 257 261 261 262 270 280 289 300 310 316 321 323 325 328 330 330 330 328 323 318 318 325 323 319 316 313 306 299 293 288 284 282
232 234 238 241 246 250 252 254 255 259 268 278 289 302 314 321 322 327 329 329 330 332 335 332 330 330 330 332 324 321 318 313 306 296 289 287 282 280
232 231 233 239 244 248 251 251 248 257 269 279 290 304 314 321 328 328 326 328 328 329 333 329 331 330 331 332 328 325 321 316 309 294 286 280 276 273
230 230 231 233 239 243 245 245 245 253 262 273 288 302 311 322 326 328 325 325 324 332 329 327 328 326 329 328 324 325 323 315 299 293 287 282 277 275
229 227 228 231 235 238 241 241 244 252 260 267 280 300 312 318 321 322 323 323 329 333 326 321 324 322 326 324 322 322 317 301 294 290 286 280 275 272
227 227 227 229 231 233 236 238 242 250 255 271 288 298 303 312 313 314 322 320 318 323 322 315 322 322 324 318 319 319 317 312 306 297 287 280 276 274
228 229 229 230 230 231 232 233 237 242 257 269 281 285 291 299 313 316 315 311 310 314 320 312 324 321 319 317 317 316 316 312 299 291 288 283 278 275
224 226 228 228 227 227 227 227 233 239 248 261 268 280 297 300 303 307 312 311 312 317 324 314 323 320 317 317 318 320 314 305 295 292 286 280 279 278
222 224 225 225 225 227 227 228 231 235 239 248 257 271 286 293 299 304 307 307 305 312 312 314 317 322 317 310 310 317 312 310 302 297 293 287 276 268
222 220 220 222 223 226 227 227 230 229 235 245 253 269 281 290 299 299 301 301 302 303 319 316 312 315 303 303 315 319 308 304 300 296 292 289 281 268
225 222 221 221 221 222 226 224 224 230 234 239 246 260 276 287 293 296 298 299 301 306 315 313 306 310 308 301 299 318 304 299 296 293 290 288 281 273
225 225 220 219 220 214 209 206 210 225 231 237 248 262 277 286 294 299 301 305 306 312 318 319 314 315 304 291 290 297 301 303 295 293 293 285 283 268
219 217 213 211 205 210 199 211 218 222 228 236 248 264 276 285 293 301 309 315 313 317 320 322 325 321 303 287 290 296 297 289 297 291 287 284 279 272
213 206 201 198 204 207 211 217 218 218 223 238 254 267 277 288 299 310 315 315 316 318 320 324 327 323 305 294 292 292 299 297 294 292 290 286 280 274
213 208 205 209 208 206 211 213 215 218 229 243 256 269 279 291 304 313 316 316 317 320 320 325 328 323 319 308 288 296 294 292 295 293 289 284 282 278
213 209 209 204 206 211 208 211 213 221 232 243 255 268 280 294 305 315 320 321 320 321 322 325 324 316 305 299 313 300 296 295 294 292 287 281 279 280
213 213 210 211 212 205 205 209 213 218 227 239 250 264 281 294 306 318 323 324 324 323 325 323 323 318 300 297 301 308 300 296 294 291 290 286 281 282
201 211 215 215 208 202 206 207 213 220 225 235 247 261 275 292 305 320 325 326 325 328 321 321 323 327 318 309 300 300 305 301 295 293 292 287 283 281
205 205 210 209 200 203 205 208 213 217 227 236 247 266 277 292 313 324 328 327 328 329 324 324 328 327 321 309 301 303 306 308 304 301 290 281 277 272
206 209 201 199 198 201 203 207 212 219 228 240 256 268 281 303 319 326 328 328 333 330 329 327 329 328 318 310 305 305 307 308 310 310 303 299 287 274